Location: Marcé
(47.5801°N, 0.3280°W)
Time: 06:31:32
(UTC+01:00)

BlueWalker 3 - Visible Passes

Search period start: 10 December 2023 00:00
Search period end: 20 December 2023 00:00
Orbit: 490 x 502 km, 53.2° (Epoch: 09 December)

Date Brightness Start Highest point End Pass type
(mag) Time Alt. Az. Time Alt. Az. Time Alt. Az.
13 Dec 4.4 19:28:43 10° S 19:29:21 13° S 19:29:21 13° S visible
14 Dec 3.9 19:05:59 10° S 19:07:54 17° SSE 19:07:54 17° SSE visible
15 Dec 3.7 18:43:15 10° S 18:45:53 18° SE 18:46:23 17° ESE visible
15 Dec 4.6 20:19:54 10° WSW 20:20:57 18° WSW 20:20:57 18° WSW visible
16 Dec 3.8 18:20:31 10° S 18:23:05 17° SE 18:24:47 14° ESE visible
16 Dec 3.5 19:57:08 10° WSW 19:59:21 33° WSW 19:59:21 33° WSW visible
17 Dec 3.9 17:57:45 10° S 18:00:19 17° SE 18:02:53 10° E visible
17 Dec 2.2 19:34:20 10° WSW 19:37:40 64° SW 19:37:40 64° SW visible
18 Dec 1.8 19:11:32 10° WSW 19:15:24 84° SSE 19:15:55 65° ENE visible
18 Dec 5.4 20:50:25 10° W 20:50:28 10° W 20:50:28 10° W visible
19 Dec 1.8 18:48:44 10° WSW 18:52:35 83° SSE 18:54:07 35° ENE visible
19 Dec 4.7 20:27:35 10° W 20:28:40 17° WNW 20:28:40 17° WNW visible
